sat.trackr.live / text

‹ back to catalog

QIANFAN-7

NORAD 60385 · 2024-140G

PAYLOAD ACTIVE UNKNOWN

§ Identity

Operator
Country
PRC
Launch date
2024-08-06
Launch site
TAISC
Launch vehicle
Mass (kg)
RCS (m²)

External: N2YO · Heavens-Above · Gunter

§ Orbital elements

Epoch: 2026-05-25T04:22:57.065952Z

Period
100.85 min
Inclination
88.9756°
Eccentricity
0.0013905
Mean motion
14.27812667 rev/d
Perigee alt
789.1 km
Apogee alt
809.0 km
Semi-major
7,177.2 km
B*
1.6437e-4
RAAN
274.4779°
Arg perigee
214.1595°
Mean anomaly
145.8705°
Rev number
9,371

§ Raw data

QIANFAN-71 60385U 24140G   26145.18260493  .00000421  00000+0  16437-3 0  99942 60385  88.9756 274.4779 0013905 214.1595 145.8705 14.27812667 93716

JSON: /api/v1/satellites/60385 · /tle

For live sub-satellite position, see the globe view (requires WebGL).

§ Visibility from observer

Set your observer location to see the next 7 days of passes ≥ 10°. The values pass through the URL so the page stays shareable.

No JS? Fill the form by hand. The geolocation button needs JavaScript.